West Columbia, WV

4:42 AM EDT on October 01, 2016 (GMT -0400)
Point Pleasant

Weather History for K3I2 - January, 2008

Change the Weather History Date:

Wednesday, January 2, 2008

  Actual Average (KHTS) Record (KHTS)
Temperature  
Mean Temperature 20 °F 34 °F  
Max Temperature 23 °F 42 °F 72 °F (2000)
Min Temperature 17 °F 26 °F -5 °F (1899)
Degree Days  
Heating Degree Days 45 31  
Month to date heating degree days 62  
Since 1 July heating degree days 1817  
Cooling Degree Days 0 0  
Month to date cooling degree days 0  
Year to date cooling degree days 0  
Moisture  
Dew Point 12 °F    
Average Humidity 73    
Maximum Humidity 80    
Minimum Humidity 63    
Precipitation  
Precipitation 0.00 in 0.09 in 1.58 in (1919)
Month to date precipitation 0.19  
Year to date precipitation 0.19  
Snow  
Snow 0.00 in - - ()
Month to date snowfall  
Since 1 September snowfall  
Snow Depth -    
Sea Level Pressure  
Sea Level Pressure 30.39 in    
Wind  
Wind Speed 8 mph (West)    
Max Wind Speed 14 mph    
Max Gust Speed 24 mph    
Visibility 4 miles    
Events Snow    
T = Trace of Precipitation, MM = Missing Value Source: NWS Daily Summary

Daily Weather History Graph

Daily Weather History Graph

Search for Another Location

Airport or City:

Trip Planner

Search our weather history database for the weather conditions in past years. The results will help you decide how hot, cold, wet, or windy it might be!

Date:

Astronomy

Jan. 02, 2008 Rise Set
Actual Time 7:47 AM EST 5:17 PM EST
Civil Twilight 7:17 AM EST 5:47 PM EST
Nautical Twilight 6:44 AM EST 6:20 PM EST
Astronomical Twilight 6:11 AM EST 6:53 PM EST
Moon 2:36 AM EST (1/2) 12:53 PM EST (1/2)
Length of Visible Light 10h 30m
Length of Day
9h 30m
Waning Crescent, 28% of the Moon is Illuminated
Jan 2
Waning Crescent
Jan 8
New
Jan 15
First Quarter
Jan 22
Full
Jan 30
Last Quarter

Hourly Weather History & Observations

Time (EST) Temp. Windchill Dew Point Humidity Pressure Visibility Wind Dir Wind Speed Gust Speed Precip Events Conditions
12:16 AM 23.0 °F 17.0 °F 14.0 °F 68% 30.20 in 4.0 mi West 4.6 mph 18.4 mph N/A Snow Light Snow
12:36 AM 23.0 °F 13.1 °F 12.2 °F 63% 30.20 in 3.0 mi West 9.2 mph 19.6 mph N/A   Haze
12:56 AM 21.2 °F 13.6 °F 14.0 °F 74% 30.20 in 2.0 mi West 5.8 mph - N/A Snow Light Snow
1:16 AM 21.2 °F 12.6 °F 15.8 °F 80% 30.19 in 1.5 mi WSW 6.9 mph - N/A Snow Light Snow
1:36 AM 21.2 °F 10.1 °F 15.8 °F 80% 30.19 in 1.0 mi WSW 10.4 mph 16.1 mph N/A Snow Light Snow
1:56 AM 21.2 °F 11.7 °F 14.0 °F 74% 30.20 in 1.8 mi WSW 8.1 mph 19.6 mph N/A Snow Light Snow
2:36 AM 21.2 °F 8.9 °F 14.0 °F 74% 30.20 in 0.8 mi WSW 12.7 mph 20.7 mph N/A Snow Light Snow
2:56 AM 19.4 °F 6.0 °F 14.0 °F 80% 30.21 in 1.2 mi WSW 13.8 mph 18.4 mph N/A Snow Light Snow
3:16 AM 19.4 °F 8.6 °F 14.0 °F 80% 30.21 in 1.8 mi WSW 9.2 mph 17.3 mph N/A Snow Light Snow
3:36 AM 19.4 °F 9.5 °F 14.0 °F 80% 30.22 in 3.0 mi West 8.1 mph 17.3 mph N/A Snow Light Snow
3:56 AM 19.4 °F 9.5 °F 14.0 °F 80% 30.22 in 1.5 mi WSW 8.1 mph 16.1 mph N/A Snow Light Snow
4:16 AM 19.4 °F 11.5 °F 12.2 °F 74% 30.23 in 1.5 mi West 5.8 mph 16.1 mph N/A Snow Light Snow
4:36 AM 19.4 °F 7.2 °F 14.0 °F 80% 30.23 in 0.5 mi WSW 11.5 mph 16.1 mph N/A Snow Snow
4:56 AM 19.4 °F 7.9 °F 12.2 °F 74% 30.24 in 1.0 mi West 10.4 mph 24.2 mph N/A Snow Light Snow
5:16 AM 17.6 °F 8.2 °F 12.2 °F 79% 30.25 in 1.0 mi WSW 6.9 mph - N/A Snow Light Snow
5:36 AM 17.6 °F 9.3 °F 12.2 °F 79% 30.26 in 1.0 mi West 5.8 mph 9.2 mph N/A Snow Light Snow
5:56 AM 17.6 °F 8.2 °F 12.2 °F 79% 30.27 in 1.0 mi West 6.9 mph - N/A Snow Light Snow
6:16 AM 17.6 °F 5.7 °F 10.4 °F 73% 30.28 in 1.2 mi WNW 10.4 mph 18.4 mph N/A Snow Light Snow
6:36 AM 17.6 °F 8.2 °F 10.4 °F 73% 30.29 in 1.5 mi WSW 6.9 mph - N/A Snow Light Snow
6:56 AM 17.6 °F 7.3 °F 12.2 °F 79% 30.30 in 2.0 mi WSW 8.1 mph - N/A Snow Light Snow
7:16 AM 17.6 °F 8.2 °F 10.4 °F 73% 30.31 in 2.0 mi West 6.9 mph - N/A Snow Light Snow
7:36 AM 17.6 °F 6.4 °F 8.6 °F 68% 30.32 in 2.5 mi West 9.2 mph 16.1 mph N/A Snow Light Snow
7:56 AM 17.6 °F 8.2 °F 10.4 °F 73% 30.34 in 1.2 mi WSW 6.9 mph - N/A Snow Light Snow
8:16 AM 17.6 °F 9.3 °F 10.4 °F 73% 30.35 in 1.2 mi WSW 5.8 mph - N/A Snow Light Snow
8:36 AM 17.6 °F 5.7 °F 10.4 °F 73% 30.36 in 1.0 mi WSW 10.4 mph - N/A Snow Light Snow
8:56 AM 17.6 °F 6.4 °F 10.4 °F 73% 30.37 in 1.0 mi WSW 9.2 mph - N/A Snow Light Snow
9:16 AM 17.6 °F 5.7 °F 10.4 °F 73% 30.38 in 1.2 mi West 10.4 mph 17.3 mph N/A Snow Light Snow
9:36 AM 17.6 °F 8.2 °F 10.4 °F 73% 30.40 in 1.2 mi West 6.9 mph - N/A Snow Light Snow
9:56 AM 17.6 °F 6.4 °F 10.4 °F 73% 30.41 in 1.5 mi West 9.2 mph 17.3 mph N/A Snow Light Snow
10:16 AM 17.6 °F 7.3 °F 10.4 °F 73% 30.42 in 2.0 mi West 8.1 mph - N/A Snow Light Snow
10:36 AM 17.6 °F 8.2 °F 10.4 °F 73% 30.44 in 4.0 mi West 6.9 mph - N/A Snow Light Snow
11:16 AM 19.4 °F 9.5 °F 10.4 °F 68% 30.45 in 5.0 mi West 8.1 mph - N/A Snow Light Snow
11:36 AM 19.4 °F 8.6 °F 10.4 °F 68% 30.45 in 4.0 mi WSW 9.2 mph - N/A Snow Light Snow
11:56 AM 19.4 °F 6.6 °F 10.4 °F 68% 30.45 in 5.0 mi WSW 12.7 mph 16.1 mph N/A Snow Light Snow
12:16 PM 19.4 °F 7.2 °F 12.2 °F 74% 30.45 in 3.0 mi WSW 11.5 mph 18.4 mph N/A Snow Light Snow
12:36 PM 21.2 °F 9.5 °F 12.2 °F 68% 30.46 in 2.5 mi WSW 11.5 mph - N/A Snow Light Snow
12:56 PM 21.2 °F 11.7 °F 12.2 °F 68% 30.47 in 2.5 mi West 8.1 mph 16.1 mph N/A Snow Light Snow
1:16 PM 21.2 °F 10.9 °F 12.2 °F 68% 30.47 in 2.5 mi West 9.2 mph - N/A Snow Light Snow
1:36 PM 21.2 °F 10.1 °F 12.2 °F 68% 30.48 in 2.5 mi West 10.4 mph 17.3 mph N/A Snow Light Snow
1:56 PM 21.2 °F 12.6 °F 12.2 °F 68% 30.48 in 2.5 mi West 6.9 mph 16.1 mph N/A Snow Light Snow
2:16 PM 21.2 °F 10.9 °F 12.2 °F 68% 30.49 in 3.0 mi West 9.2 mph - N/A Snow Light Snow
2:36 PM 21.2 °F 11.7 °F 12.2 °F 68% 30.49 in 4.0 mi West 8.1 mph - N/A Snow Light Snow
2:56 PM 21.2 °F 13.6 °F 12.2 °F 68% 30.50 in 4.0 mi West 5.8 mph - N/A Snow Light Snow
3:16 PM 21.2 °F 10.9 °F 12.2 °F 68% 30.50 in 7.0 mi West 9.2 mph - N/A Snow Light Snow
3:36 PM 21.2 °F 11.7 °F 12.2 °F 68% 30.52 in 10.0 mi West 8.1 mph - N/A Snow Light Snow
3:56 PM 21.2 °F 12.6 °F 12.2 °F 68% 30.52 in 7.0 mi West 6.9 mph - N/A Snow Light Snow
4:16 PM 21.2 °F 14.9 °F 12.2 °F 68% 30.53 in 10.0 mi WNW 4.6 mph - N/A   Overcast
4:36 PM 21.2 °F 12.6 °F 12.2 °F 68% 30.54 in 10.0 mi West 6.9 mph - N/A   Overcast
4:56 PM 21.2 °F 14.9 °F 12.2 °F 68% 30.55 in 10.0 mi West 4.6 mph - N/A   Overcast
5:16 PM 21.2 °F 12.6 °F 12.2 °F 68% 30.56 in 10.0 mi West 6.9 mph - N/A   Overcast
5:36 PM 19.4 °F 11.5 °F 12.2 °F 74% 30.57 in 7.0 mi WSW 5.8 mph - N/A   Overcast
5:56 PM 19.4 °F 10.4 °F 12.2 °F 74% 30.58 in 7.0 mi WSW 6.9 mph - N/A Snow Light Snow
6:16 PM 19.4 °F 10.4 °F 12.2 °F 74% 30.60 in 10.0 mi West 6.9 mph - N/A   Overcast
6:36 PM 19.4 °F 12.8 °F 12.2 °F 74% 30.61 in 10.0 mi West 4.6 mph - N/A   Overcast
6:56 PM 19.4 °F 9.5 °F 12.2 °F 74% 30.62 in 10.0 mi West 8.1 mph - N/A   Overcast
7:16 PM 19.4 °F 10.4 °F 12.2 °F 74% 30.63 in 3.0 mi West 6.9 mph - N/A Snow Light Snow
7:36 PM 19.4 °F 14.3 °F 12.2 °F 74% 30.64 in 1.5 mi West 3.5 mph - N/A Snow Light Snow
7:56 PM 19.4 °F 11.5 °F 12.2 °F 74% 30.65 in 1.5 mi WNW 5.8 mph - N/A Snow Light Snow
8:16 PM 19.4 °F 14.3 °F 12.2 °F 74% 30.65 in 1.0 mi West 3.5 mph - N/A Snow Light Snow
8:36 PM 19.4 °F - 12.2 °F 74% 30.66 in 1.8 mi Calm Calm - N/A Snow Light Snow
8:56 PM 19.4 °F 12.8 °F 12.2 °F 74% 30.66 in 2.5 mi WNW 4.6 mph - N/A Snow Light Snow
9:16 PM 19.4 °F 11.5 °F 12.2 °F 74% 30.67 in 2.5 mi West 5.8 mph - N/A Snow Light Snow
9:36 PM 19.4 °F 14.3 °F 12.2 °F 74% 30.67 in 2.5 mi West 3.5 mph - N/A Snow Light Snow
9:56 PM 19.4 °F 12.8 °F 10.4 °F 68% 30.68 in 2.5 mi West 4.6 mph - N/A Snow Light Snow
10:16 PM 17.6 °F 9.3 °F 12.2 °F 79% 30.68 in 1.8 mi West 5.8 mph - N/A Snow Light Snow
10:36 PM 17.6 °F 9.3 °F 12.2 °F 79% 30.68 in 2.0 mi West 5.8 mph - N/A Snow Light Snow
10:56 PM 17.6 °F 9.3 °F 12.2 °F 79% 30.68 in 2.0 mi West 5.8 mph - N/A Snow Light Snow
11:16 PM 17.6 °F 8.2 °F 10.4 °F 73% 30.69 in 3.0 mi West 6.9 mph - N/A Snow Light Snow
11:36 PM 17.6 °F 10.7 °F 10.4 °F 73% 30.70 in 5.0 mi West 4.6 mph - N/A Snow Light Snow
11:56 PM 17.6 °F 12.3 °F 10.4 °F 73% 30.70 in 4.0 mi West 3.5 mph - N/A Snow Light Snow